Total_Precipitation_Accumulation
0.01 0.00 0.00 0.00 0.00 0.00 0.00 0.00 0.00 0.00 0.00 0.00 0.00 0.00 0.00 0.00 0.00 0.01 0.01 0.01 0.02 0.04 0.08 0.13 0.15 0.16 0.17 0.17 0.15 0.13 0.10 0.10 0.11 0.10 0.10 0.11 0.12 0.12 0.13 0.14 0.16 0.17 0.17 0.18 0.19 0.20 0.19 0.14 0.14
0.01 0.00 0.00 0.01 0.00 0.00 0.00 0.00 0.00 0.00 0.00 0.00 0.00 0.00 0.00 0.00 0.00 0.00 0.00 0.01 0.01 0.02 0.05 0.09 0.15 0.17 0.18 0.16 0.14 0.12 0.10 0.09 0.09 0.09 0.09 0.09 0.09 0.10 0.11 0.12 0.12 0.13 0.15 0.16 0.16 0.17 0.18 0.14 0.14
0.02 0.01 0.01 0.01 0.00 0.00 0.00 0.00 0.00 0.00 0.00 0.00 0.00 0.00 0.00 0.00 0.00 0.01 0.01 0.01 0.01 0.01 0.03 0.08 0.15 0.17 0.18 0.18 0.15 0.12 0.10 0.10 0.10 0.09 0.08 0.08 0.09 0.09 0.09 0.08 0.07 0.08 0.09 0.11 0.12 0.16 0.17 0.16 0.15
0.03 0.03 0.02 0.01 0.00 0.00 0.00 0.00 0.00 0.00 0.00 0.00 0.00 0.00 0.00 0.00 0.00 0.01 0.01 0.01 0.01 0.02 0.03 0.08 0.14 0.18 0.19 0.19 0.16 0.12 0.11 0.10 0.09 0.08 0.08 0.08 0.09 0.09 0.08 0.07 0.06 0.05 0.06 0.08 0.11 0.16 0.20 0.16 0.14
0.04 0.04 0.03 0.01 0.00 0.00 0.00 0.00 0.00 0.00 0.00 0.00 0.00 0.00 0.00 0.00 0.00 0.01 0.01 0.02 0.03 0.03 0.05 0.08 0.13 0.18 0.19 0.19 0.16 0.12 0.11 0.11 0.09 0.08 0.08 0.08 0.09 0.08 0.07 0.07 0.07 0.05 0.05 0.06 0.08 0.12 0.21 0.20 0.19
0.07 0.06 0.03 0.01 0.00 0.00 0.00 0.00 0.00 0.00 0.00 0.00 0.00 0.00 0.00 0.00 0.00 0.00 0.00 0.00 0.00 0.01 0.02 0.05 0.12 0.15 0.16 0.18 0.16 0.12 0.11 0.11 0.09 0.08 0.08 0.08 0.08 0.08 0.09 0.11 0.10 0.08 0.06 0.07 0.07 0.08 0.13 0.18 0.21
0.08 0.07 0.03 0.00 0.00 0.00 0.00 0.00 0.00 0.00 0.00 0.00 0.00 0.00 0.00 0.00 0.00 0.00 0.00 0.00 0.00 0.00 0.01 0.04 0.09 0.12 0.14 0.17 0.16 0.13 0.11 0.10 0.09 0.08 0.07 0.07 0.07 0.07 0.10 0.09 0.08 0.07 0.07 0.08 0.06 0.05 0.07 0.12 0.16
0.09 0.10 0.04 0.01 0.00 0.00 0.00 0.00 0.00 0.00 0.00 0.00 0.00 0.00 0.00 0.00 0.00 0.00 0.00 0.00 0.01 0.01 0.02 0.04 0.07 0.08 0.10 0.13 0.15 0.14 0.12 0.10 0.10 0.09 0.07 0.07 0.07 0.09 0.10 0.07 0.07 0.07 0.08 0.07 0.07 0.06 0.05 0.04 0.06
0.13 0.16 0.06 0.01 0.00 0.00 0.00 0.00 0.00 0.00 0.00 0.00 0.00 0.00 0.00 0.00 0.00 0.00 0.01 0.01 0.02 0.02 0.03 0.04 0.05 0.07 0.07 0.09 0.11 0.14 0.13 0.11 0.11 0.11 0.10 0.07 0.07 0.07 0.06 0.04 0.06 0.06 0.06 0.06 0.06 0.07 0.07 0.05 0.02
0.16 0.11 0.03 0.01 0.00 0.01 0.00 0.00 0.00 0.00 0.00 0.00 0.00 0.00 0.00 0.00 0.01 0.01 0.01 0.01 0.02 0.02 0.03 0.03 0.04 0.05 0.07 0.07 0.09 0.11 0.11 0.10 0.08 0.07 0.06 0.06 0.07 0.07 0.07 0.07 0.09 0.07 0.06 0.07 0.09 0.08 0.07 0.05 0.03
0.12 0.06 0.01 0.01 0.01 0.01 0.01 0.01 0.01 0.00 0.00 0.00 0.00 0.00 0.00 0.00 0.01 0.01 0.01 0.01 0.01 0.01 0.02 0.03 0.04 0.04 0.06 0.07 0.07 0.08 0.09 0.09 0.06 0.04 0.03 0.03 0.04 0.04 0.05 0.05 0.07 0.07 0.08 0.11 0.11 0.11 0.11 0.11 0.12
0.08 0.04 0.02 0.02 0.02 0.02 0.02 0.01 0.01 0.01 0.00 0.00 0.00 0.00 0.00 0.02 0.02 0.02 0.02 0.02 0.02 0.02 0.02 0.03 0.04 0.04 0.05 0.05 0.06 0.06 0.07 0.07 0.06 0.04 0.03 0.02 0.02 0.02 0.02 0.03 0.03 0.05 0.07 0.10 0.14 0.15 0.16 0.14 0.13
0.08 0.03 0.02 0.02 0.03 0.03 0.03 0.02 0.01 0.01 0.00 0.00 0.00 0.00 0.00 0.02 0.03 0.04 0.04 0.05 0.04 0.03 0.03 0.03 0.04 0.05 0.05 0.05 0.06 0.05 0.05 0.06 0.05 0.04 0.03 0.02 0.02 0.02 0.01 0.01 0.01 0.02 0.02 0.02 0.04 0.05 0.08 0.09 0.09
0.09 0.06 0.04 0.03 0.04 0.04 0.05 0.03 0.01 0.00 0.00 0.00 0.00 0.01 0.01 0.02 0.04 0.06 0.06 0.06 0.05 0.05 0.04 0.04 0.04 0.05 0.06 0.05 0.05 0.05 0.05 0.05 0.05 0.04 0.03 0.02 0.02 0.02 0.02 0.02 0.01 0.01 0.01 0.01 0.01 0.01 0.02 0.03 0.03
0.12 0.13 0.09 0.05 0.03 0.04 0.08 0.06 0.01 0.00 0.00 0.00 0.00 0.02 0.01 0.01 0.03 0.06 0.07 0.07 0.05 0.05 0.05 0.05 0.05 0.06 0.06 0.05 0.04 0.05 0.05 0.05 0.05 0.04 0.03 0.03 0.02 0.02 0.02 0.02 0.02 0.02 0.01 0.01 0.01 0.01 0.01 0.01 0.01
0.20 0.24 0.18 0.06 0.03 0.04 0.14 0.11 0.01 0.00 0.00 0.00 0.01 0.01 0.03 0.02 0.02 0.04 0.08 0.09 0.08 0.07 0.07 0.07 0.07 0.06 0.05 0.05 0.05 0.05 0.05 0.05 0.05 0.04 0.03 0.03 0.02 0.02 0.02 0.03 0.03 0.02 0.02 0.02 0.02 0.02 0.01 0.02 0.01
0.31 0.27 0.16 0.07 0.04 0.06 0.13 0.09 0.01 0.00 0.00 0.00 0.01 0.01 0.03 0.03 0.02 0.03 0.06 0.09 0.11 0.10 0.09 0.09 0.09 0.07 0.05 0.05 0.05 0.05 0.05 0.05 0.04 0.03 0.03 0.03 0.02 0.02 0.02 0.03 0.03 0.03 0.02 0.02 0.02 0.01 0.01 0.02 0.01
0.30 0.19 0.11 0.07 0.06 0.09 0.11 0.07 0.01 0.01 0.01 0.01 0.01 0.01 0.02 0.04 0.03 0.03 0.05 0.07 0.11 0.13 0.12 0.11 0.10 0.10 0.08 0.07 0.07 0.07 0.06 0.05 0.05 0.04 0.03 0.02 0.02 0.02 0.02 0.03 0.03 0.03 0.03 0.02 0.02 0.02 0.02 0.02 0.02
0.18 0.21 0.17 0.09 0.07 0.13 0.13 0.08 0.03 0.01 0.02 0.02 0.01 0.01 0.01 0.02 0.03 0.03 0.05 0.06 0.10 0.14 0.14 0.13 0.12 0.11 0.12 0.10 0.08 0.07 0.06 0.05 0.05 0.04 0.02 0.02 0.01 0.01 0.02 0.02 0.02 0.02 0.03 0.03 0.02 0.02 0.02 0.02 0.02
0.26 0.27 0.20 0.14 0.11 0.19 0.17 0.08 0.03 0.02 0.02 0.02 0.01 0.01 0.01 0.01 0.01 0.02 0.04 0.05 0.07 0.11 0.13 0.13 0.13 0.11 0.11 0.08 0.05 0.04 0.04 0.04 0.04 0.04 0.03 0.02 0.02 0.02 0.02 0.02 0.03 0.03 0.03 0.03 0.03 0.03 0.03 0.03 0.03
0.34 0.27 0.17 0.15 0.14 0.20 0.22 0.14 0.02 0.01 0.01 0.01 0.01 0.01 0.01 0.00 0.01 0.01 0.03 0.05 0.05 0.06 0.09 0.11 0.11 0.11 0.12 0.10 0.07 0.06 0.06 0.06 0.06 0.05 0.04 0.02 0.01 0.01 0.01 0.01 0.02 0.02 0.02 0.02 0.02 0.02 0.04 0.05 0.03
0.36 0.18 0.17 0.20 0.31 0.33 0.26 0.25 0.04 0.00 0.00 0.00 0.00 0.00 0.00 0.00 0.00 0.01 0.01 0.03 0.04 0.04 0.06 0.09 0.11 0.10 0.11 0.14 0.10 0.06 0.05 0.04 0.03 0.03 0.02 0.01 0.01 0.01 0.01 0.01 0.02 0.02 0.02 0.02 0.02 0.02 0.04 0.07 0.09
0.29 0.18 0.22 0.29 0.41 0.46 0.32 0.31 0.09 0.01 0.01 0.00 0.00 0.00 0.00 0.00 0.00 0.00 0.00 0.02 0.03 0.03 0.04 0.07 0.10 0.13 0.11 0.13 0.12 0.07 0.05 0.03 0.02 0.02 0.02 0.02 0.02 0.01 0.02 0.02 0.02 0.02 0.02 0.02 0.02 0.03 0.04 0.08 0.13
0.28 0.35 0.39 0.45 0.68 0.84 0.31 0.25 0.11 0.02 0.01 0.00 0.00 0.00 0.00 0.00 0.00 0.00 0.00 0.01 0.01 0.02 0.04 0.06 0.08 0.11 0.12 0.11 0.12 0.10 0.06 0.05 0.04 0.03 0.02 0.02 0.02 0.02 0.02 0.02 0.02 0.02 0.02 0.03 0.03 0.04 0.05 0.07 0.10
0.48 0.73 1.06 1.10 1.13 0.70 0.12 0.12 0.08 0.02 0.01 0.00 0.00 0.00 0.00 0.00 0.00 0.00 0.00 0.00 0.01 0.02 0.03 0.06 0.07 0.08 0.10 0.11 0.10 0.08 0.08 0.07 0.06 0.05 0.03 0.03 0.03 0.03 0.02 0.02 0.02 0.02 0.02 0.03 0.04 0.06 0.07 0.07 0.10
0.50 0.65 0.84 0.77 0.51 0.18 0.05 0.07 0.03 0.01 0.01 0.01 0.00 0.00 0.00 0.00 0.00 0.00 0.00 0.00 0.00 0.01 0.02 0.04 0.05 0.06 0.08 0.10 0.09 0.08 0.09 0.09 0.08 0.06 0.05 0.05 0.05 0.03 0.02 0.02 0.03 0.03 0.04 0.05 0.07 0.08 0.09 0.10 0.12
0.47 0.49 0.40 0.49 0.38 0.23 0.13 0.06 0.03 0.01 0.01 0.01 0.01 0.00 0.00 0.00 0.01 0.00 0.00 0.00 0.00 0.01 0.01 0.02 0.03 0.05 0.06 0.07 0.09 0.09 0.09 0.09 0.08 0.07 0.06 0.06 0.04 0.03 0.02 0.02 0.03 0.04 0.06 0.08 0.10 0.12 0.12 0.13 0.15
0.42 0.48 0.58 0.80 0.65 0.33 0.15 0.08 0.08 0.05 0.03 0.01 0.01 0.00 0.00 0.00 0.01 0.01 0.00 0.00 0.00 0.00 0.01 0.01 0.02 0.04 0.05 0.06 0.08 0.09 0.09 0.09 0.08 0.08 0.07 0.05 0.04 0.03 0.02 0.03 0.04 0.06 0.08 0.09 0.12 0.14 0.13 0.16 0.18
0.53 0.66 0.82 0.81 0.54 0.34 0.19 0.13 0.14 0.10 0.05 0.03 0.02 0.01 0.01 0.01 0.01 0.01 0.01 0.01 0.00 0.00 0.00 0.01 0.01 0.03 0.04 0.05 0.06 0.07 0.08 0.11 0.11 0.09 0.06 0.05 0.04 0.04 0.03 0.04 0.06 0.09 0.11 0.11 0.14 0.14 0.16 0.19 0.19
0.46 0.59 0.71 0.80 0.55 0.25 0.18 0.15 0.14 0.10 0.07 0.05 0.03 0.02 0.01 0.01 0.01 0.01 0.01 0.01 0.01 0.01 0.00 0.00 0.01 0.02 0.03 0.04 0.06 0.06 0.05 0.08 0.12 0.13 0.09 0.06 0.05 0.04 0.04 0.04 0.07 0.12 0.14 0.14 0.17 0.18 0.18 0.22 0.24